Regional Weather Roundup
Issued by NWS

Home | Current Version | Previous Version | Graphics & Text | Print | Product List | Glossary On
Versions: 1 2 3 4 5 6 7 8 9 10 11 12 13 14 15 16 17 18 19 20 21 22 23 24 25 26 27 28 29 30 31 32 33 34 35 36 37 38 39 40 41 42 43 44 45 46 47 48 49 50
000
ASUS45 KCYS 221310
RWRWY

WYOMING REGIONAL WEATHER ROUNDUP
NATIONAL WEATHER SERVICE CHEYENNE WY
600 AM MST SAT NOV 22 2014

NOTE:  "FAIR" INDICATES FEW OR NO CLOUDS BELOW 12,000 FEET
WITH NO SIGNIFICANT WEATHER AND/OR OBSTRUCTIONS TO VISIBILITY.

WYZ001-221400-
YELLOWSTONE NATIONAL PARK

CITY           SKY/WX    TMP DP  RH WIND       PRES   REMARKS
LK YELLOWSTONE   N/A     27  24  89 W3        29.70F
W YELLOWSTONE  NOT AVBL

$$
WYZ002>013-054>058-071-098>099-221400-
NORTHERN WYOMING

CITY           SKY/WX    TMP DP  RH WIND       PRES   REMARKS
JACKSON        CLOUDY    30  30 100 S14       29.76F WCI  20
CODY           MOCLDY    45  27  49 NE3       29.56F
GREYBULL       PTCLDY    14  11  87 E3        29.63S
WORLAND        CLOUDY    17  13  84 SE3       29.61F
SHERIDAN       MOCLDY    25  19  78 N6        29.48R WCI  18
BUFFALO        MOCLDY    37  15  40 SW3       29.48F
GILLETTE       CLOUDY    37  25  61 SW20G30   29.48F WCI  27
HULETT           N/A    N/A N/A N/A MISG        N/A
NEWCASTLE      FAIR      36  23  60 SE13      29.60F WCI  27

$$
WYZ014>020-022>026-101>103-221400-
CENTRAL WYOMING

CITY           SKY/WX    TMP DP  RH WIND       PRES   REMARKS
BIG PINEY      MOCLDY    19  15  84 CALM      29.83F
PINEDALE       CLOUDY    23  21  93 CALM      29.85S
DUBOIS         PTSUNNY   32  23  69 NW17G29   29.67F WCI  21
LANDER         NOT AVBL
RIVERTON       MOCLDY    27  17  66 S8        29.68F WCI  19
CASPER         MOCLDY    41  21  44 SW28G40   29.67R
DOUGLAS        CLOUDY   N/A N/A N/A W13G25    29.64F

$$
WYZ021-027>030-104>119-221400-
SOUTHERN WYOMING

CITY           SKY/WX    TMP DP  RH WIND       PRES   REMARKS
EVANSTON       PTCLDY    33  22  63 S15       29.89F WCI  23
KEMMERER       PTSUNNY   30  23  74 SW5       29.85F WCI  25
FORT BRIDGER   FAIR      36  25  64 SW12      29.90F WCI  28
ROCK SPRINGS   MOCLDY    32  18  56 SW8       29.88F WCI  25
DIXON          FAIR      38  17  42 S18G31    29.96F WCI  29
RAWLINS        MOCLDY    36  17  46 SW24G32   29.86R WCI  24
SARATOGA       PTSUNNY   34  21  60 SW6       29.90S WCI  29
LARAMIE        CLOUDY    35  16  45 SW35G43   29.78F WCI  21
CHEYENNE       MOCLDY    32  15  49 SW12      29.77F WCI  23
TORRINGTON     MOCLDY    32  19  58 S10       29.70F WCI  24
PINE BLUFFS    FAIR      25  16  68 S5        29.79F WCI  19

$$


USA.gov is the U.S. government's official web portal to all federal, state and local government web resources and services.